sat.trackr.live / text

‹ back to catalog

EUTELSAT 36B

NORAD 36101 · 2009-065A

PAYLOAD ACTIVE UNKNOWN

§ Identity

Operator
Country
EUTE
Launch date
2009-11-24
Launch site
TYMSC
Launch vehicle
Mass (kg)
RCS (m²)
12.59

Purposes: comms

External: N2YO · Heavens-Above · Gunter

§ Orbital elements

Epoch: 2026-09-19T17:24:38.480832Z

Period
1,436.08 min
Inclination
0.7228°
Eccentricity
0.0005769
Mean motion
1.00273259 rev/d
Perigee alt
35,761.9 km
Apogee alt
35,810.5 km
Semi-major
42,164.3 km
B*
0.0000e+0
RAAN
81.1190°
Arg perigee
94.6548°
Mean anomaly
134.5150°
Rev number
6,165

§ Raw data

EUTELSAT 36B1 36101U 09065A   26262.72544538  .00000108  00000+0  00000+0 0  99942 36101   0.7228  81.1190 0005769  94.6548 134.5150  1.00273259 61651

JSON: /api/v1/satellites/36101 · /tle

For live sub-satellite position, see the globe view (requires WebGL).

§ Visibility from observer

Set your observer location to see the next 7 days of passes ≥ 10°. The values pass through the URL so the page stays shareable.

No JS? Fill the form by hand. The geolocation button needs JavaScript.